Location: Wine Hill
(37.9489°N, 89.6745°W)
Time: 08:39:37
(UTC+00:00)

Daily predictions for brighter satellites

Satellite Brightness Start Highest point End
(mag) Time Altitude Azimuth Time Altitude Azimuth Time Altitude Azimuth
Cosmos 2208 Rocket 4.4 12:00:41 10° S 12:05:52 67° ESE 12:11:01 10° NNE
CZ-3C R/B 4.1 12:00:35 10° SW 12:06:12 29° SSE 12:33:25 10° ESE
Helios 1A Rocket 2.9 12:03:17 10° S 12:06:25 38° W 12:09:23 11° NNW
USA 290 3.9 12:03:50 10° S 12:06:49 38° ESE 12:09:50 10° NE
Cosmos 2322 Rocket 2.9 12:03:51 13° NW 12:08:16 34° WSW 12:13:16 10° SSW
Cosmos 1484 Rocket 2.7 12:05:57 10° N 12:09:11 43° WNW 12:12:22 10° SSW
BREEZE M DEB (TANK) 3.3 12:19:32 13° NW 12:21:04 20° N 12:24:13 10° NE
Cosmos 1812 Rocket 3.6 12:16:55 10° NNW 12:21:11 59° W 12:25:27 10° S
Cosmos 1602 Rocket 4.0 12:17:32 10° SSW 12:21:40 39° WNW 12:25:51 10° N
Meteor 1-25 Rocket 4.3 12:17:47 10° S 12:23:33 87° WNW 12:29:24 10° N
Cosmos 2221 2.6 12:19:55 10° NNW 12:23:55 50° W 12:27:55 10° SSW
Cosmos 2322 4.2 12:19:32 10° NNW 12:25:10 64° ENE 12:30:46 10° SSE
Cosmos 1437 Rocket 2.6 12:23:56 10° NNW 12:27:20 54° W 12:30:45 10° S
Okean 1-7 Rocket 3.9 12:29:04 10° SSW 12:33:21 44° W 12:37:38 10° N
Cosmos 1842 2.7 12:30:34 10° N 12:33:54 83° W 12:37:10 10° S
ATLAS 2AS CENTAUR R/B 3.4 12:29:09 10° WSW 12:35:24 33° NW 12:41:33 10° NNE
SL-4 R/B 2.3 12:34:15 10° WNW 12:37:11 34° SW 12:40:04 10° SSE
OAO 2 Rocket 3.9 12:32:15 10° W 12:37:21 57° S 12:42:22 10° ESE
Meteor 1-19 Rocket 4.5 12:33:14 10° NNW 12:39:00 58° W 12:44:52 10° S
IGS 5A 4.4 12:37:18 10° NNW 12:40:37 25° WNW 12:43:54 10° SW
Meteor 1-10 Rocket 4.4 12:34:48 10° NNW 12:40:39 61° W 12:46:27 10° S
ARIANE 5 R/B 2.6 12:36:25 10° NNE 12:41:40 90° ESE 12:46:52 10° SSW
Cosmos 2098 Rocket 4.5 22:58:55 10° SSW 23:02:57 43° WNW 23:07:40 10° N
Cosmos 2227 Rocket 2.3 22:59:32 10° NNW 23:05:06 56° ENE 23:10:38 10° SE
Hubble Space Telescope 2.8 23:03:32 10° SW 23:06:17 19° S 23:09:02 10° SE
Meteor 1-25 Rocket 4.3 23:00:39 10° N 23:06:24 65° E 23:12:04 10° SSE
Thor Agena Rocket 3.6 23:01:27 10° SSE 23:06:33 60° ENE 23:11:36 10° N
Cosmos 1697 Rocket 3.5 23:04:02 10° SW 23:09:28 52° WNW 23:14:57 10° NNE
Cosmos 372 Rocket 4.2 23:05:04 10° S 23:10:01 50° ESE 23:14:58 10° NNE
Cosmos 1898 Rocket 3.9 23:08:51 10° S 23:13:41 43° ESE 23:18:32 10° NNE
Cosmos 2333 Rocket 4.0 23:21:30 10° ESE 23:23:10 11° E 23:24:50 10° E
IGS 5A 4.1 23:20:10 10° S 23:24:02 58° W 23:27:58 10° NNW
SL-16 R/B 3.6 23:19:01 10° N 23:24:54 46° WNW 23:30:43 10° SW
Okean 1 4.0 23:22:34 10° SSE 23:25:37 26° E 23:28:40 10° NNE
Cosmos 1937 Rocket 3.9 23:22:21 10° S 23:27:10 41° ESE 23:31:59 10° NNE
Cosmos 2058 Rocket 3.4 23:24:41 10° SSE 23:28:56 45° E 23:33:12 10° NNE
Cosmos 1606 Rocket 4.5 23:27:57 10° SSW 23:32:13 51° W 23:36:33 10° N
USA 238 DEB 3.9 23:27:38 10° SW 23:33:34 63° NW 23:40:03 10° NNE
USA 238 3.9 23:27:43 10° SW 23:33:40 63° NW 23:40:12 10° NNE
CZ-2D R/B 2.6 23:33:21 10° SSE 23:36:26 61° ENE 23:39:32 10° N
Cosmos-2242 3.2 23:32:22 10° SSE 23:36:27 49° E 23:40:34 10° NNE
GEOS 3 Rocket 4.2 23:38:58 10° NNE 23:44:14 57° NW 23:49:28 10° SW
SL-24 R/B - RUBIN 2 4.1 23:39:40 10° SSW 23:45:12 62° ESE 23:49:23 15° NE
SAR-Lupe-4 3.5 23:44:03 10° SSE 23:47:36 88° W 23:51:09 10° NNW
Resurs 1-3 4.5 23:44:45 10° SE 23:48:16 25° ENE 23:51:47 10° NNE
Aureole 1 Rocket 4.0 23:46:38 10° SW 23:50:55 56° WNW 23:56:24 10° N
CZ-2D R/B 4.0 23:50:37 10° SE 23:54:23 34° ENE 23:58:09 10° N
Cosmos 2082 4.0 23:49:02 10° N 23:54:28 43° ENE 23:59:52 10° SE
ARIANE 5 R/B 2.7 23:49:38 10° S 23:54:41 76° WSW 23:59:50 10° NNW
